Location: Bosdarros
(43.2167°N, 0.3667°W)
Time: 03:26:57
(UTC+00:00)

Cosmos 1980 - Pass Details

Date: 22 April 2021
Orbit: 838 x 848 km, 71.0° (Epoch: 15 May)

Event Time Altitude Azimuth Distance (km) Brightness Sun altitude
Rises 19:31:15 0° 340° (NNW) 3,418 7.6 -7.4°
Reaches altitude 10° 19:33:51 10° 347° (NNW) 2,480 6.7 -7.8°
Maximum altitude 19:39:14 42° 58° (ENE) 1,192 4.3 -8.7°
Enters shadow 19:44:19 11° 128° (SE) 2,372 5.4 -9.5°
